EW2776 Paimio FI current weather conditions

sailwx.info

Wind from 189

Air temperature 10.0° C
Dewpoint 9.2° C

Last reported at 2018-Oct-17 05:00 UTC.
Time now 2018-Oct-17 05:28 UTC

Location: N 60°30' E 022°41'.
View on Google Maps.

See reports from other nearby stations

  
Tides and Currents Weather Stations Pressure Air Temp Water Temp Dewpoint Dewpoint Depression Visibility Wind Speed Wind Dir Waves Ship Positions
date/time (UTC)wind fromknots sea level pressurealtimeterstation pressurevisibilityair tempwater tempwave heightnotes
2018-Oct-17 05:00 189 10.0
2018-Oct-17 04:45 190 10.0
2018-Oct-17 04:30 190 9.4
2018-Oct-17 04:15 160 9.4
2018-Oct-17 04:00 209 9.4
2018-Oct-17 03:45 355 8.9
2018-Oct-17 03:30 355 8.9
2018-Oct-17 03:16 355 8.9
2018-Oct-17 03:02 355 8.9
2018-Oct-17 02:47 355 8.3
2018-Oct-17 02:31 355 8.3
2018-Oct-17 02:16 355 8.3
2018-Oct-17 02:02 355 8.3
2018-Oct-17 01:46 355 8.3
2018-Oct-17 01:31 355 8.3
2018-Oct-17 01:16 355 8.3
2018-Oct-17 01:01 355 8.3
2018-Oct-17 00:46 355 7.8
2018-Oct-17 00:31 355 7.8
2018-Oct-17 00:16 355 7.8
2018-Oct-17 00:01 355 7.8
2018-Oct-16 23:46 355 7.2
2018-Oct-16 23:30 355 7.2
2018-Oct-16 23:15 355 7.2
2018-Oct-16 23:00 355 7.2
2018-Oct-16 22:46 355 7.2
2018-Oct-16 22:32 355 7.2
2018-Oct-16 22:16 355 7.8
2018-Oct-16 22:01 355 7.8
2018-Oct-16 21:46 355 7.8
2018-Oct-16 21:31 355 7.8
2018-Oct-16 21:15 355 8.3
2018-Oct-16 21:00 355 8.9
2018-Oct-16 20:45 355 8.9
2018-Oct-16 20:30 355 9.4
2018-Oct-16 20:15 355 9.4
2018-Oct-16 20:00 355 9.4
2018-Oct-16 19:45 355 9.4
2018-Oct-16 19:30 355 9.4
2018-Oct-16 19:15 355 9.4
2018-Oct-16 19:00 355 9.4
2018-Oct-16 18:45 355 9.4
2018-Oct-16 18:31 355 9.4
2018-Oct-16 18:15 355 9.4
2018-Oct-16 18:00 355 9.4
2018-Oct-16 17:45 355 10.0
2018-Oct-16 17:30 355 10.0
2018-Oct-16 17:15 355 9.4
2018-Oct-16 17:00 355 10.0
2018-Oct-16 16:45 355 10.0
2018-Oct-16 16:30 355 10.0
2018-Oct-16 16:15 355 10.6
2018-Oct-16 16:00 355 10.6
2018-Oct-16 15:45 355 10.6
2018-Oct-16 15:30 355 11.1
2018-Oct-16 15:15 355 11.1
2018-Oct-16 15:00 355 11.1
2018-Oct-16 14:45 355 11.1
2018-Oct-16 14:32 355 11.7
2018-Oct-16 14:30 355 11.7
2018-Oct-16 14:18 355 11.7
2018-Oct-16 14:02 355 11.7
2018-Oct-16 13:46 355 11.7
2018-Oct-16 13:31 355 11.7
2018-Oct-16 13:16 355 11.7
2018-Oct-16 13:01 355 11.7
2018-Oct-16 12:46 306 11.7
2018-Oct-16 12:31 306 11.7
2018-Oct-16 12:16 306 11.7
2018-Oct-16 12:02 306 11.1
2018-Oct-16 11:46 306 11.1
2018-Oct-16 11:30 009 11.1
2018-Oct-16 11:16 009 11.1
2018-Oct-16 11:01 344 11.1
2018-Oct-16 10:45 344 11.1
2018-Oct-16 10:30 344 11.1
2018-Oct-16 10:15 344 11.1
2018-Oct-16 10:00 344 11.1
2018-Oct-16 09:46 344 10.6
2018-Oct-16 09:30 344 10.6
2018-Oct-16 09:15 344 10.6
2018-Oct-16 09:00 344 10.0
2018-Oct-16 08:45 313 10.0
2018-Oct-16 08:30 317 10.0
2018-Oct-16 08:15 288 10.0
2018-Oct-16 08:00 288 9.4
2018-Oct-16 07:45 288 9.4
2018-Oct-16 07:30 275 8.3
2018-Oct-16 07:15 193 7.2
2018-Oct-16 07:00 193 6.7
2018-Oct-16 06:47 193 5.6
2018-Oct-16 06:31 193 5.0
2018-Oct-16 06:17 193 5.0
2018-Oct-16 06:01 217 5.0
2018-Oct-16 05:46 217 5.0
2018-Oct-16 05:31 217 5.6
2018-Oct-16 05:16 217 5.6
2018-Oct-16 05:01 217 5.6
2018-Oct-16 04:46 217 6.7
2018-Oct-16 04:31 217 7.2
2018-Oct-16 04:16 217 7.8
2018-Oct-16 04:01 217 7.2
2018-Oct-16 03:47 217 7.8
2018-Oct-16 03:31 217 8.3
2018-Oct-16 03:15 217 8.9
2018-Oct-16 03:01 194 8.9
2018-Oct-16 02:46 194 8.9
2018-Oct-16 02:30 194 8.9
2018-Oct-16 02:16 194 9.4
2018-Oct-16 02:00 161 9.4
2018-Oct-16 01:46 244 9.4
2018-Oct-16 01:30 257 9.4
2018-Oct-16 01:15 172 8.9
2018-Oct-16 01:00 194 9.4
2018-Oct-16 00:45 170 0 gusting 5 9.4
2018-Oct-16 00:31 162 9.4
2018-Oct-16 00:15 178 0 gusting 6 9.4
2018-Oct-16 00:00 230 9.4
2018-Oct-15 23:45 157 0 gusting 5 9.4
2018-Oct-15 23:30 188 0 gusting 4 9.4
2018-Oct-15 23:15 176 9.4
2018-Oct-15 23:00 147 9.4
2018-Oct-15 22:45 188 9.4
2018-Oct-15 22:30 178 9.4
2018-Oct-15 22:15 158 9.4
2018-Oct-15 22:00 134 9.4
2018-Oct-15 21:45 188 9.4
2018-Oct-15 21:31 175 9.4
2018-Oct-15 21:17 159 9.4
2018-Oct-15 21:01 178 10.0
2018-Oct-15 20:46 178 10.0
2018-Oct-15 20:31 172 10.0
2018-Oct-15 20:16 171 10.6
2018-Oct-15 20:01 178 10.6
2018-Oct-15 19:46 130 10.6
2018-Oct-15 19:31 199 11.1
2018-Oct-15 19:16 198 0 gusting 5 11.1
2018-Oct-15 19:00 190 11.1
2018-Oct-15 18:45 172 11.1
2018-Oct-15 18:31 186 11.1
2018-Oct-15 18:16 177 11.1
2018-Oct-15 18:01 177 11.1
2018-Oct-15 17:46 201 11.1
2018-Oct-15 17:31 192 11.7
2018-Oct-15 17:16 199 11.7
2018-Oct-15 17:01 217 11.1
2018-Oct-15 16:46 177 11.7
2018-Oct-15 16:30 163 11.7
2018-Oct-15 16:15 177 11.7
2018-Oct-15 16:00 175 11.7
2018-Oct-15 15:46 202 12.2
2018-Oct-15 15:31 149 12.2
2018-Oct-15 15:15 173 12.8
2018-Oct-15 15:01 254 0 gusting 5 12.8
2018-Oct-15 14:46 185 13.3
2018-Oct-15 14:31 217 13.3
2018-Oct-15 14:15 176 13.3
2018-Oct-15 14:01 198 0 gusting 5 13.9
2018-Oct-15 13:46 182 0 gusting 5 13.9
2018-Oct-15 13:30 227 14.4
2018-Oct-15 13:16 207 0 gusting 4 14.4
2018-Oct-15 13:00 212 14.4
2018-Oct-15 12:46 148 14.4
2018-Oct-15 12:31 223 14.4
2018-Oct-15 12:16 161 2 gusting 6 13.9
2018-Oct-15 12:00 170 0 gusting 6 14.4
2018-Oct-15 11:46 179 1 gusting 7 14.4
2018-Oct-15 11:16 238 0 gusting 6 13.9
2018-Oct-15 11:00 194 14.4
2018-Oct-15 10:46 210 0 gusting 6 14.4
2018-Oct-15 10:30 257 0 gusting 5 14.4
2018-Oct-15 10:15 200 14.4
2018-Oct-15 10:00 202 14.4
2018-Oct-15 09:45 186 1 gusting 7 14.4
2018-Oct-15 09:30 178 0 gusting 6 14.4
2018-Oct-15 09:15 226 0 gusting 7 14.4
2018-Oct-15 09:00 215 0 gusting 10 13.9
2018-Oct-15 08:45 173 2 gusting 12 14.4
2018-Oct-15 08:30 222 0 gusting 4 13.9
2018-Oct-15 08:15 225 13.3
2018-Oct-15 08:00 167 0 gusting 4 12.8
2018-Oct-15 07:45 115 0 gusting 5 12.2
2018-Oct-15 07:30 163 12.2
2018-Oct-15 07:17 150 0 gusting 6 11.7
2018-Oct-15 07:01 166 11.1
2018-Oct-15 06:46 141 11.1
2018-Oct-15 06:31 153 10.6
2018-Oct-15 06:16 216 10.0
2018-Oct-15 06:01 168 0 gusting 3 10.0
2018-Oct-15 05:45 176 9.4
2018-Oct-15 05:31 180 9.4
2018-Oct-15 05:16 175 9.4
2018-Oct-15 05:01 248 8.9